| time (UTC) | temp F | wind direction | speed knots | gust knots | rain 1hr in | rain 24hr in | rain mn in | humidity % | barometer mb |
| 20260507041541 | 51 | 79 | 0.0 | 0.0 | 0.00 | 0.00 | 0.00 | 71 | 1014.9 |
| 20260507040932 | 51 | 72 | 0.0 | 0.0 | 0.00 | 0.00 | 0.00 | 69 | 1014.9 |
| 20260507040332 | 51 | 79 | 0.0 | 0.0 | 0.00 | 0.00 | 0.00 | 71 | 1015.2 |
| 20260507035713 | 51 | 72 | 0.0 | 0.0 | 0.00 | 0.00 | 0.71 | 68 | 1015.2 |
| 20260507035145 | 51 | 75 | 0.0 | 0.0 | 0.00 | 0.00 | 0.71 | 69 | 1014.9 |
| 20260507034518 | 52 | 72 | 0.0 | 0.0 | 0.00 | 0.00 | 0.71 | 72 | 1015.2 |
| 20260507033911 | 52 | 75 | 0.0 | 0.0 | 0.00 | 0.00 | 0.71 | 68 | 1015.2 |
| 20260507033343 | 52 | 78 | 0.0 | 0.0 | 0.00 | 0.00 | 0.71 | 69 | 1015.2 |
| 20260507032121 | 52 | 74 | 0.0 | 0.0 | 0.00 | 0.00 | 0.71 | 67 | 1015.2 |
| 20260507030950 | 52 | 85 | 0.0 | 0.0 | 0.00 | 0.00 | 0.71 | 68 | 1015.2 |
| 20260507030351 | 52 | 72 | 0.0 | 0.0 | 0.00 | 0.00 | 0.71 | 68 | 1014.9 |
| 20260507025726 | 53 | 71 | 0.0 | 0.0 | 0.00 | 0.00 | 0.71 | 67 | 1015.2 |
| 20260507024540 | 53 | 74 | 0.0 | 0.0 | 0.00 | 0.00 | 0.71 | 65 | 1015.2 |
| 20260507023911 | 53 | 77 | 0.0 | 0.0 | 0.00 | 0.00 | 0.71 | 66 | 1014.9 |
| 20260507023354 | 53 | 74 | 0.0 | 0.0 | 0.00 | 0.00 | 0.71 | 70 | 1014.9 |
| 20260507022710 | 53 | 88 | 0.0 | 0.0 | 0.00 | 0.00 | 0.71 | 68 | 1014.9 |
| 20260507022117 | 53 | 77 | 0.0 | 0.9 | 0.00 | 0.00 | 0.71 | 67 | 1014.9 |
| 20260507021541 | 53 | 79 | 0.0 | 0.0 | 0.00 | 0.00 | 0.71 | 67 | 1014.5 |
| 20260507020939 | 54 | 55 | 1.7 | 2.6 | 0.00 | 0.00 | 0.71 | 65 | 1014.5 |
| 20260507020318 | 53 | 7 | 3.5 | 3.5 | 0.00 | 0.00 | 0.71 | 67 | 1014.2 |
| 20260507015728 | 53 | 66 | 0.0 | 0.0 | 0.00 | 0.00 | 0.71 | 69 | 1014.5 |
| 20260507015145 | 54 | 76 | 0.0 | 0.0 | 0.00 | 0.00 | 0.71 | 69 | 1014.2 |
| 20260507014513 | 54 | 57 | 0.9 | 2.6 | 0.00 | 0.00 | 0.71 | 66 | 1014.2 |
| 20260507013930 | 54 | 78 | 0.0 | 0.0 | 0.00 | 0.00 | 0.71 | 69 | 1014.2 |
| 20260507013354 | 54 | 71 | 0.9 | 1.7 | 0.00 | 0.00 | 0.71 | 70 | 1014.2 |
| 20260507012144 | 54 | 77 | 0.0 | 0.0 | 0.00 | 0.00 | 0.71 | 72 | 1013.8 |
| 20260507011532 | 53 | 86 | 0.0 | 0.0 | 0.00 | 0.00 | 0.71 | 75 | 1013.8 |
| 20260507010953 | 53 | 86 | 0.0 | 0.0 | 0.00 | 0.00 | 0.71 | 75 | 1013.8 |
| 20260507010329 | 53 | 80 | 0.0 | 0.0 | 0.00 | 0.00 | 0.71 | 85 | 1013.5 |
| 20260507005135 | 53 | 87 | 0.0 | 0.0 | 0.00 | 0.00 | 0.71 | 86 | 1013.5 |
| 20260507004543 | 54 | 80 | 0.0 | 0.0 | 0.00 | 0.00 | 0.71 | 84 | 1013.2 |
| 20260507003344 | 54 | 87 | 0.0 | 0.0 | 0.00 | 0.00 | 0.71 | 76 | 1013.2 |
| 20260507002728 | 54 | 91 | 0.0 | 0.0 | 0.00 | 0.00 | 0.71 | 79 | 1013.2 |
| 20260507001548 | 55 | 74 | 0.0 | 0.0 | 0.00 | 0.00 | 0.71 | 71 | 1012.8 |
| 20260507000314 | 56 | 75 | 0.0 | 0.0 | 0.00 | 0.00 | 0.71 | 68 | 1012.8 |
| 20260506235729 | 56 | 74 | 0.0 | 0.0 | 0.00 | 0.00 | 0.71 | 67 | 1012.8 |
| 20260506235133 | 56 | 63 | 0.0 | 0.9 | 0.00 | 0.00 | 0.71 | 66 | 1012.8 |
| 20260506234523 | 56 | 73 | 0.0 | 0.0 | 0.00 | 0.00 | 0.71 | 70 | 1012.8 |
| 20260506233939 | 57 | 51 | 0.0 | 0.0 | 0.00 | 0.00 | 0.71 | 67 | 1012.8 |
| 20260506233351 | 57 | 74 | 0.0 | 0.0 | 0.00 | 0.00 | 0.71 | 66 | 1012.8 |
| 20260506232743 | 57 | 66 | 0.0 | 0.0 | 0.00 | 0.00 | 0.71 | 66 | 1012.5 |
| 20260506232149 | 57 | 75 | 0.0 | 0.0 | 0.00 | 0.00 | 0.71 | 80 | 1012.5 |
| 20260506231525 | 57 | 77 | 0.0 | 0.0 | 0.00 | 0.00 | 0.71 | 74 | 1012.8 |
| 20260506230932 | 58 | 67 | 0.0 | 0.9 | 0.00 | 0.00 | 0.71 | 70 | 1013.2 |
| 20260506230329 | 58 | 79 | 0.0 | 0.0 | 0.00 | 0.00 | 0.71 | 70 | 1013.2 |
| 20260506225711 | 58 | 75 | 0.0 | 0.0 | 0.00 | 0.00 | 0.71 | 78 | 1013.2 |
| 20260506225110 | 58 | 78 | 0.0 | 0.0 | 0.00 | 0.00 | 0.71 | 79 | 1012.8 |
| 20260506224517 | 59 | 77 | 0.0 | 0.0 | 0.00 | 0.00 | 0.71 | 81 | 1013.2 |
| 20260506223932 | 59 | 77 | 0.0 | 0.0 | 0.00 | 0.00 | 0.71 | 80 | 1013.2 |
| 20260506223327 | 59 | 77 | 0.0 | 0.0 | 0.00 | 0.00 | 0.71 | 78 | 1012.8 |
| 20260506222722 | 59 | 81 | 0.0 | 0.0 | 0.00 | 0.00 | 0.71 | 75 | 1012.8 |
| 20260506222144 | 59 | 82 | 0.0 | 0.0 | 0.00 | 0.00 | 0.71 | 79 | 1012.8 |
| 20260506221515 | 60 | 78 | 0.0 | 0.0 | 0.00 | 0.00 | 0.71 | 71 | 1012.8 |
| 20260506220918 | 60 | 59 | 0.9 | 0.9 | 0.00 | 0.00 | 0.71 | 68 | 1012.8 |
| 20260506220343 | 60 | 88 | 0.0 | 0.0 | 0.00 | 0.00 | 0.71 | 68 | 1012.5 |
| 20260506215738 | 60 | 81 | 0.0 | 0.0 | 0.00 | 0.00 | 0.71 | 73 | 1012.8 |
| 20260506215141 | 60 | 66 | 0.0 | 0.0 | 0.00 | 0.00 | 0.71 | 70 | 1012.5 |
| 20260506214549 | 60 | 79 | 0.0 | 0.0 | 0.00 | 0.00 | 0.71 | 67 | 1012.1 |
| 20260506213317 | 61 | 64 | 0.0 | 0.0 | 0.00 | 0.00 | 0.71 | 65 | 1012.1 |
| 20260506212713 | 61 | 70 | 0.0 | 0.9 | 0.00 | 0.00 | 0.71 | 69 | 1012.1 |
| 20260506212127 | 60 | 70 | 0.0 | 0.9 | 0.00 | 0.00 | 0.71 | 64 | 1012.1 |
| 20260506210929 | 61 | 66 | 0.0 | 0.0 | 0.00 | 0.00 | 0.71 | 63 | 1012.1 |
| 20260506210347 | 61 | 67 | 0.0 | 0.0 | 0.00 | 0.00 | 0.71 | 69 | 1012.5 |
| 20260506204531 | 61 | 88 | 0.0 | 0.0 | 0.00 | 0.00 | 0.71 | 64 | 1012.1 |
| 20260506203311 | 62 | 111 | 3.5 | 5.2 | 0.00 | 0.00 | 0.71 | 66 | 1012.1 |
| 20260506202713 | 62 | 90 | 0.0 | 0.0 | 0.00 | 0.00 | 0.71 | 65 | 1012.1 |
| 20260506201533 | 61 | 50 | 0.9 | 0.9 | 0.00 | 0.00 | 0.71 | 63 | 1012.1 |
| 20260506200314 | 61 | 30 | 0.9 | 0.9 | 0.00 | 0.00 | 0.71 | 65 | 1011.8 |
| 20260506195752 | 61 | 315 | 0.0 | 0.0 | 0.00 | 0.00 | 0.71 | 66 | 1011.8 |
| 20260506194536 | 61 | 65 | 0.0 | 0.9 | 0.00 | 0.00 | 0.71 | 67 | 1011.8 |
| 20260506193953 | 62 | 62 | 0.9 | 0.9 | 0.00 | 0.00 | 0.71 | 65 | 1011.8 |
| 20260506193353 | 61 | 19 | 0.9 | 1.7 | 0.00 | 0.00 | 0.71 | 67 | 1012.1 |
| 20260506192743 | 61 | 41 | 0.9 | 0.9 | 0.00 | 0.00 | 0.71 | 67 | 1011.8 |
| 20260506192132 | 62 | 230 | 1.7 | 2.6 | 0.00 | 0.00 | 0.71 | 70 | 1011.8 |
| 20260506191543 | 60 | 114 | 1.7 | 1.7 | 0.00 | 0.00 | 0.71 | 69 | 1012.1 |
| 20260506190913 | 61 | 260 | 1.7 | 2.6 | 0.00 | 0.00 | 0.71 | 68 | 1011.8 |
| 20260506190340 | 61 | 39 | 2.6 | 2.6 | 0.00 | 0.00 | 0.71 | 69 | 1012.1 |
| 20260506185719 | 60 | 229 | 1.7 | 2.6 | 0.00 | 0.00 | 0.71 | 74 | 1012.1 |
| 20260506184536 | 59 | 50 | 0.9 | 0.9 | 0.00 | 0.00 | 0.71 | 78 | 1011.8 |
| 20260506183920 | 60 | 65 | 0.0 | 0.9 | 0.00 | 0.00 | 0.71 | 72 | 1012.1 |
| 20260506183330 | 60 | 15 | 1.7 | 2.6 | 0.00 | 0.00 | 0.71 | 76 | 1012.1 |
| 20260506182741 | 59 | 63 | 1.7 | 2.6 | 0.00 | 0.00 | 0.71 | 72 | 1012.1 |
| 20260506181541 | 59 | 158 | 1.7 | 2.6 | 0.00 | 0.00 | 0.71 | 75 | 1012.1 |
| 20260506180936 | 59 | 73 | 0.9 | 0.9 | 0.00 | 0.00 | 0.71 | 77 | 1012.1 |
| 20260506180354 | 59 | 159 | 1.7 | 1.7 | 0.00 | 0.00 | 0.71 | 79 | 1011.8 |
| 20260506175748 | 58 | 109 | 0.0 | 1.7 | 0.00 | 0.00 | 0.71 | 77 | 1012.1 |
| 20260506175127 | 60 | 63 | 0.0 | 1.7 | 0.00 | 0.00 | 0.71 | 76 | 1012.1 |
| 20260506174531 | 58 | 49 | 1.7 | 2.6 | 0.00 | 0.00 | 0.71 | 77 | 1012.5 |
| 20260506173943 | 58 | 172 | 0.0 | 0.0 | 0.00 | 0.00 | 0.71 | 80 | 1012.5 |
| 20260506173318 | 58 | 346 | 0.0 | 0.0 | 0.00 | 0.00 | 0.71 | 81 | 1012.5 |
| 20260506172712 | 57 | 138 | 0.9 | 0.9 | 0.00 | 0.00 | 0.71 | 79 | 1012.5 |
| 20260506172141 | 58 | 188 | 0.9 | 1.7 | 0.00 | 0.00 | 0.71 | 78 | 1012.5 |
| 20260506170953 | 57 | 73 | 0.9 | 0.9 | 0.00 | 0.00 | 0.71 | 79 | 1012.1 |
| 20260506170310 | 57 | 105 | 1.7 | 2.6 | 0.00 | 0.00 | 0.71 | 78 | 1012.5 |
| 20260506163946 | 55 | 9 | 2.6 | 2.6 | 0.00 | 0.00 | 0.71 | 86 | 1012.5 |
| 20260506163334 | 54 | 24 | 2.6 | 2.6 | 0.00 | 0.00 | 0.71 | 88 | 1012.8 |
| 20260506162749 | 54 | 7 | 2.6 | 3.5 | 0.00 | 0.00 | 0.71 | 88 | 1012.5 |
| 20260506162115 | 54 | 40 | 3.5 | 5.2 | 0.00 | 0.00 | 0.71 | 90 | 1012.8 |
| 20260506161546 | 52 | 76 | 0.0 | 0.0 | 0.00 | 0.00 | 0.71 | 92 | 1012.5 |
| 20260506160934 | 52 | 66 | 0.0 | 0.0 | 0.00 | 0.00 | 0.71 | 94 | 1012.8 |
| 20260506160351 | 52 | 11 | 0.9 | 0.9 | 0.00 | 0.00 | 0.71 | 93 | 1012.8 |
| 20260506155712 | 52 | 80 | 0.0 | 0.0 | 0.00 | 0.00 | 0.71 | 95 | 1012.5 |
| 20260506155128 | 52 | 82 | 0.9 | 0.9 | 0.00 | 0.00 | 0.71 | 94 | 1012.5 |
| 20260506154542 | 51 | 104 | 0.9 | 0.9 | 0.00 | 0.00 | 0.71 | 95 | 1012.1 |
| 20260506153930 | 50 | 14 | 3.5 | 5.2 | 0.00 | 0.00 | 0.71 | 95 | 1012.1 |
| 20260506153334 | 51 | 80 | 0.0 | 0.0 | 0.00 | 0.00 | 0.71 | 96 | 1011.8 |
| 20260506152733 | 51 | 70 | 0.9 | 0.9 | 0.00 | 0.00 | 0.71 | 95 | 1011.8 |
| 20260506151533 | 50 | 10 | 1.7 | 2.6 | 0.00 | 0.00 | 0.71 | 97 | 1011.8 |
| 20260506150933 | 50 | 344 | 4.3 | 7.0 | 0.00 | 0.00 | 0.71 | 97 | 1011.5 |
| 20260506150311 | 50 | 90 | 0.0 | 0.0 | 0.00 | 0.00 | 0.71 | 98 | 1011.8 |
| 20260506145750 | 50 | 75 | 0.0 | 0.9 | 0.00 | 0.00 | 0.71 | 97 | 1011.5 |
| 20260506145133 | 50 | 77 | 0.0 | 0.0 | 0.00 | 0.00 | 0.71 | 97 | 1011.5 |
| 20260506144538 | 50 | 49 | 1.7 | 1.7 | 0.00 | 0.00 | 0.71 | 97 | 1011.1 |
| 20260506143929 | 50 | 55 | 0.0 | 0.0 | 0.00 | 0.00 | 0.71 | 98 | 1011.1 |
| 20260506143317 | 50 | 80 | 1.7 | 2.6 | 0.00 | 0.00 | 0.71 | 98 | 1011.1 |
| 20260506142716 | 50 | 54 | 1.7 | 1.7 | 0.00 | 0.00 | 0.71 | 98 | 1010.8 |
| 20260506142117 | 50 | 70 | 0.0 | 0.9 | 0.00 | 0.00 | 0.71 | 98 | 1011.1 |
| 20260506141523 | 50 | 25 | 2.6 | 3.5 | 0.00 | 0.00 | 0.71 | 98 | 1010.8 |
| 20260506140935 | 50 | 56 | 1.7 | 1.7 | 0.00 | 0.00 | 0.71 | 98 | 1010.8 |
| 20260506140343 | 50 | 74 | 0.0 | 0.9 | 0.00 | 0.00 | 0.71 | 99 | 1010.8 |
| 20260506135734 | 50 | 350 | 1.7 | 5.2 | 0.00 | 0.00 | 0.71 | 99 | 1011.1 |
| 20260506135139 | 50 | 49 | 1.7 | 3.5 | 0.00 | 0.00 | 0.71 | 99 | 1010.8 |
| 20260506134512 | 51 | 149 | 0.9 | 0.9 | 0.00 | 0.00 | 0.71 | 99 | 1010.1 |
| 20260506133920 | 52 | 40 | 3.5 | 5.2 | 0.00 | 0.00 | 0.71 | 99 | 1010.1 |
| 20260506133350 | 52 | 51 | 1.7 | 2.6 | 0.00 | 0.00 | 0.70 | 99 | 1009.8 |
| 20260506132744 | 52 | 66 | 1.7 | 2.6 | 0.00 | 0.00 | 0.70 | 99 | 1010.1 |
| 20260506132120 | 52 | 38 | 0.0 | 0.9 | 0.00 | 0.00 | 0.69 | 99 | 1009.8 |
| 20260506131514 | 53 | 20 | 4.3 | 7.8 | 0.00 | 0.00 | 0.69 | 99 | 1009.4 |
| 20260506130920 | 55 | 81 | 0.9 | 0.9 | 0.00 | 0.00 | 0.68 | 99 | 1009.4 |
| 20260506125727 | 58 | 258 | 0.0 | 0.9 | 0.00 | 0.00 | 0.68 | 99 | 1008.8 |
| 20260506125146 | 58 | 68 | 0.0 | 0.0 | 0.00 | 0.00 | 0.68 | 99 | 1008.4 |
| 20260506124511 | 58 | 210 | 2.6 | 2.6 | 0.00 | 0.00 | 0.68 | 99 | 1008.8 |
| 20260506123932 | 58 | 176 | 0.9 | 1.7 | 0.00 | 0.00 | 0.68 | 99 | 1008.4 |
| 20260506123320 | 58 | 192 | 1.7 | 2.6 | 0.00 | 0.00 | 0.68 | 99 | 1008.4 |
| 20260506122715 | 58 | 83 | 0.0 | 0.0 | 0.00 | 0.00 | 0.68 | 99 | 1008.4 |
| 20260506122149 | 58 | 85 | 0.0 | 0.0 | 0.00 | 0.00 | 0.68 | 99 | 1008.4 |
| 20260506121518 | 57 | 131 | 1.7 | 1.7 | 0.00 | 0.00 | 0.68 | 99 | 1008.1 |
| 20260506120310 | 57 | 174 | 0.9 | 1.7 | 0.00 | 0.00 | 0.68 | 99 | 1008.1 |
| 20260506115715 | 57 | 92 | 0.0 | 0.0 | 0.00 | 0.00 | 0.68 | 99 | 1008.1 |
| 20260506115122 | 57 | 78 | 0.0 | 0.0 | 0.00 | 0.00 | 0.68 | 99 | 1007.7 |
| 20260506114533 | 57 | 238 | 2.6 | 2.6 | 0.00 | 0.00 | 0.68 | 99 | 1007.4 |
| 20260506113948 | 57 | 67 | 0.9 | 0.9 | 0.00 | 0.00 | 0.68 | 99 | 1008.1 |
| 20260506112733 | 57 | 83 | 0.0 | 0.0 | 0.00 | 0.00 | 0.68 | 99 | 1008.1 |
| 20260506111515 | 57 | 133 | 1.7 | 1.7 | 0.00 | 0.00 | 0.68 | 99 | 1007.7 |
| 20260506110913 | 57 | 110 | 1.7 | 2.6 | 0.00 | 0.00 | 0.67 | 99 | 1007.4 |
| 20260506105711 | 57 | 184 | 0.0 | 0.0 | 0.00 | 0.00 | 0.66 | 99 | 1007.7 |
| 20260506105146 | 57 | 166 | 0.0 | 0.9 | 0.00 | 0.00 | 0.66 | 99 | 1007.4 |
| 20260506103921 | 57 | 192 | 0.0 | 0.9 | 0.00 | 0.00 | 0.66 | 99 | 1007.4 |
| 20260506103351 | 57 | 90 | 0.0 | 0.0 | 0.00 | 0.00 | 0.66 | 99 | 1007.4 |
| 20260506102708 | 57 | 95 | 1.7 | 2.6 | 0.00 | 0.00 | 0.66 | 99 | 1007.4 |
| 20260506102109 | 57 | 113 | 0.0 | 0.0 | 0.00 | 0.00 | 0.66 | 99 | 1007.4 |
| 20260506100950 | 57 | 140 | 0.9 | 0.9 | 0.00 | 0.00 | 0.66 | 99 | 1007.4 |
| 20260506095711 | 57 | 121 | 0.0 | 0.0 | 0.00 | 0.00 | 0.64 | 99 | 1007.4 |
| 20260506095149 | 57 | 95 | 0.0 | 0.0 | 0.00 | 0.00 | 0.64 | 99 | 1007.4 |
| 20260506094538 | 57 | 81 | 0.0 | 0.0 | 0.00 | 0.00 | 0.63 | 99 | 1007.4 |
| 20260506093321 | 57 | 76 | 0.0 | 0.0 | 0.00 | 0.00 | 0.61 | 99 | 1007.4 |
| 20260506092747 | 57 | 95 | 0.0 | 0.0 | 0.00 | 0.00 | 0.60 | 99 | 1007.4 |
| 20260506092113 | 57 | 83 | 0.0 | 0.0 | 0.00 | 0.00 | 0.59 | 99 | 1007.4 |
| 20260506090323 | 57 | 81 | 0.0 | 0.0 | 0.00 | 0.00 | 0.56 | 99 | 1007.7 |
| 20260506085736 | 57 | 80 | 0.0 | 0.0 | 0.00 | 0.00 | 0.56 | 99 | 1007.7 |
| 20260506085114 | 57 | 77 | 0.0 | 0.0 | 0.00 | 0.00 | 0.56 | 99 | 1007.7 |
| 20260506083926 | 57 | 83 | 0.0 | 0.0 | 0.00 | 0.00 | 0.55 | 99 | 1007.7 |
| 20260506083337 | 57 | 81 | 0.0 | 0.0 | 0.00 | 0.00 | 0.53 | 99 | 1007.7 |
| 20260506082737 | 57 | 85 | 0.0 | 0.0 | 0.00 | 0.00 | 0.52 | 99 | 1007.7 |
| 20260506082142 | 57 | 100 | 0.0 | 0.0 | 0.00 | 0.00 | 0.51 | 99 | 1007.4 |
| 20260506081514 | 57 | 118 | 0.9 | 0.9 | 0.00 | 0.00 | 0.51 | 99 | 1007.4 |
| 20260506080930 | 57 | 100 | 0.0 | 0.0 | 0.00 | 0.00 | 0.50 | 99 | 1007.4 |
| 20260506080318 | 57 | 103 | 0.0 | 0.0 | 0.00 | 0.00 | 0.48 | 99 | 1007.4 |
| 20260506073309 | 57 | 204 | 0.0 | 0.9 | 0.00 | 0.00 | 0.32 | 98 | 1007.7 |
| 20260506072709 | 57 | 108 | 1.7 | 1.7 | 0.00 | 0.00 | 0.27 | 98 | 1007.7 |
| 20260506072143 | 57 | 108 | 0.9 | 1.7 | 0.00 | 0.00 | 0.24 | 98 | 1008.1 |
| 20260506071550 | 57 | 221 | 0.0 | 1.7 | 0.00 | 0.00 | 0.22 | 97 | 1008.4 |
| 20260506070907 | 58 | 74 | 1.7 | 1.7 | 0.00 | 0.00 | 0.17 | 97 | 1008.4 |
| 20260506070330 | 58 | 94 | 0.9 | 0.9 | 0.00 | 0.00 | 0.11 | 95 | 1008.4 |
| 20260506062127 | 59 | 156 | 0.9 | 0.9 | 0.00 | 0.00 | 0.01 | 90 | 1007.7 |
| 20260506061510 | 59 | 103 | 0.0 | 0.9 | 0.00 | 0.00 | 0.01 | 89 | 1007.7 |
| 20260506060342 | 57 | 153 | 1.7 | 1.7 | 0.00 | 0.00 | 0.01 | 94 | 1007.7 |
| 20260506050949 | 57 | 80 | 0.0 | 0.0 | 0.00 | 0.00 | 0.01 | 98 | 1008.4 |
| 20260506050336 | 57 | 80 | 0.0 | 0.0 | 0.00 | 0.00 | 0.01 | 98 | 1008.4 |
| 20260506044516 | 57 | 85 | 0.0 | 0.0 | 0.00 | 0.00 | 0.01 | 98 | 1008.8 |
| 20260506043920 | 57 | 79 | 0.0 | 0.0 | 0.00 | 0.00 | 0.01 | 97 | 1009.1 |